Fuglevik, Norway

8:58 AM CEST on April 27, 2017 (GMT +0200)
Bredsandkroken | | Change Station

Elev 157 ft 59.41 °N, 10.69 °E | Updated 2 minutes ago

Snow
Snow
36.5 °F
Feels Like 36 °F
N
1.2
Wind Variable Wind from NNW
Gusts 3.1 mph

Today
High -- | Low -- °F
--% Chance of Precip.
Yesterday
High -- | Low -- °F
Precip. -- in
Pressure 29.74 in
Visibility 6.2 miles
Clouds Few 1600 ft
Scattered Clouds 13000 ft
Windchill 36 °F
Dew Point 31 °F
Humidity 81%
Rainfall 0.00 in
Snow Depth Not available.
5:28 AM 9:02 PM
New Moon, 1% visible
METAR ENRY 270650Z 34003KT 9999 FEW016 SCT130 01/M01 Q1007 NOSIG
Pressure 29.74 in
Visibility 6.2 miles
Clouds Few 1600 ft
Scattered Clouds 13000 ft
Windchill 36 °F
Dew Point 31 °F
Humidity 81%
Rainfall 0.00 in
Snow Depth Not available.
5:28 AM 9:02 PM
New Moon, 1% visible
METAR ENRY 270650Z 34003KT 9999 FEW016 SCT130 01/M01 Q1007 NOSIG

Get Severe Weather Alerts

Thanks for signing up!

Be on the lookout for a verification email in your inbox.

You'll start receiving the daily forecast at 8 AM.

×

10-Day Weather Forecast

×

Almanac

Astronomy

Apr. 27, 2017 Rise Set
Actual Time
Civil Twilight
Nautical Twilight
Astronomical Twilight
Moon
Length of Visible Light
Length of Day
Tomorrow will be .
, % of the Moon is Illuminated

Today's Extremes

Country Highs Country Lows

Community

WunderPhotos

WunderBlog® & News

Nearby

Air Quality

  Air Quality AQ Index Pollutant
Not available.

Snow Depth

Station Depth Elevation

Earthquake Activity

City Distance Mag. Time & Date
Minimum magnitude displayed is 2.5.

Coastal Water Temperatures

Place Temperature

Stations

Nearby Weather Stations

Station Location Temp. Windchill Dew Point Humidity Wind Precip. Elev Updated Type